Year,Month,Day,Hour,Minute,Value (Times are PST for temperature in C)
2008,06,25,00,00,12.00
2008,06,25,00,01,12.00
2008,06,25,00,02,11.90
2008,06,25,00,03,11.90
2008,06,25,00,04,11.80
2008,06,25,00,05,11.80
2008,06,25,00,06,11.80
2008,06,25,00,07,11.80
2008,06,25,00,08,11.90
2008,06,25,00,09,11.90
2008,06,25,00,10,11.90
2008,06,25,00,11,11.90
2008,06,25,00,12,11.90
2008,06,25,00,13,11.90
2008,06,25,00,14,11.90
2008,06,25,00,15,11.80
2008,06,25,00,16,11.80
2008,06,25,00,17,11.80
2008,06,25,00,18,11.80
2008,06,25,00,19,11.80
2008,06,25,00,20,11.80
2008,06,25,00,21,11.80
2008,06,25,00,22,11.80
2008,06,25,00,23,11.80
2008,06,25,00,24,11.80
2008,06,25,00,25,11.70
2008,06,25,00,26,11.70
2008,06,25,00,27,11.60
2008,06,25,00,28,11.60
2008,06,25,00,29,11.60
2008,06,25,00,30,11.60
2008,06,25,00,31,11.60
2008,06,25,00,32,11.40
2008,06,25,00,33,11.40
2008,06,25,00,34,11.40
2008,06,25,00,35,11.40
2008,06,25,00,36,11.40
2008,06,25,00,37,11.40
2008,06,25,00,38,11.40
2008,06,25,00,39,11.40
2008,06,25,00,40,11.40
2008,06,25,00,41,11.40
2008,06,25,00,42,11.40
2008,06,25,00,43,11.30
2008,06,25,00,44,11.30
2008,06,25,00,45,11.30
2008,06,25,00,46,11.30
2008,06,25,00,47,11.30
2008,06,25,00,48,11.30
2008,06,25,00,49,11.20
2008,06,25,00,50,11.20
2008,06,25,00,51,11.20
2008,06,25,00,52,11.10
2008,06,25,00,53,11.10
2008,06,25,00,54,11.10
2008,06,25,00,55,11.10
2008,06,25,00,56,11.10
2008,06,25,00,57,11.10
2008,06,25,00,58,11.10
2008,06,25,00,59,11.10
2008,06,25,01,00,10.90
2008,06,25,01,01,10.90
2008,06,25,01,02,10.90
2008,06,25,01,03,10.90
2008,06,25,01,04,10.90
2008,06,25,01,05,10.90
2008,06,25,01,06,10.90
2008,06,25,01,07,10.90
2008,06,25,01,08,10.90
2008,06,25,01,09,10.90
2008,06,25,01,10,10.90
2008,06,25,01,11,10.90
2008,06,25,01,12,10.90
2008,06,25,01,13,10.90
2008,06,25,01,14,10.90
2008,06,25,01,15,10.80
2008,06,25,01,16,10.80
2008,06,25,01,17,10.80
2008,06,25,01,18,10.70
2008,06,25,01,19,10.70
2008,06,25,01,20,10.70
2008,06,25,01,21,10.70
2008,06,25,01,22,10.70
2008,06,25,01,23,10.70
2008,06,25,01,24,10.70
2008,06,25,01,25,10.70
2008,06,25,01,26,10.70
2008,06,25,01,27,10.70
2008,06,25,01,28,10.70
2008,06,25,01,29,10.70
2008,06,25,01,30,10.70
2008,06,25,01,31,10.70
2008,06,25,01,32,10.70
2008,06,25,01,33,10.70
2008,06,25,01,34,10.70
2008,06,25,01,35,10.70
2008,06,25,01,36,10.70
2008,06,25,01,37,10.70
2008,06,25,01,38,10.70
2008,06,25,01,39,10.70
2008,06,25,01,40,10.60
2008,06,25,01,41,10.60
2008,06,25,01,42,10.60
2008,06,25,01,43,10.60
2008,06,25,01,44,10.60
2008,06,25,01,45,10.60
2008,06,25,01,46,10.60
2008,06,25,01,47,10.60
2008,06,25,01,48,10.60
2008,06,25,01,49,10.60
2008,06,25,01,50,10.60
2008,06,25,01,51,10.60
2008,06,25,01,52,10.60
2008,06,25,01,53,10.60
2008,06,25,01,54,10.60
2008,06,25,01,55,10.60
2008,06,25,01,56,10.60
2008,06,25,01,57,10.60
2008,06,25,01,58,10.60
2008,06,25,01,59,10.50
2008,06,25,02,00,10.40
2008,06,25,02,01,10.40
2008,06,25,02,02,10.40
2008,06,25,02,03,10.40
2008,06,25,02,04,10.40
2008,06,25,02,05,10.40
2008,06,25,02,06,10.40
2008,06,25,02,07,10.40
2008,06,25,02,08,10.40
2008,06,25,02,09,10.40
2008,06,25,02,10,10.30
2008,06,25,02,11,10.30
2008,06,25,02,12,10.30
2008,06,25,02,13,10.20
2008,06,25,02,14,10.20
2008,06,25,02,15,10.20
2008,06,25,02,16,10.20
2008,06,25,02,17,10.10
2008,06,25,02,18,10.10
2008,06,25,02,19,10.10
2008,06,25,02,20,10.10
2008,06,25,02,21,10.10
2008,06,25,02,22,10.10
2008,06,25,02,23,10.10
2008,06,25,02,24,10.00
2008,06,25,02,25,9.90
2008,06,25,02,26,9.90
2008,06,25,02,27,9.90
2008,06,25,02,28,9.90
2008,06,25,02,29,9.90
2008,06,25,02,30,9.80
2008,06,25,02,31,9.80
2008,06,25,02,32,9.80
2008,06,25,02,33,9.80
2008,06,25,02,34,9.80
2008,06,25,02,35,9.80
2008,06,25,02,36,9.80
2008,06,25,02,37,9.80
2008,06,25,02,38,9.80
2008,06,25,02,39,9.80
2008,06,25,02,40,9.80
2008,06,25,02,41,9.80
2008,06,25,02,42,9.90
2008,06,25,02,43,9.90
2008,06,25,02,44,9.90
2008,06,25,02,45,9.90
2008,06,25,02,46,9.90
2008,06,25,02,47,9.90
2008,06,25,02,48,9.80
2008,06,25,02,49,9.80
2008,06,25,02,50,9.80
2008,06,25,02,51,9.80
2008,06,25,02,52,9.80
2008,06,25,02,53,9.80
2008,06,25,02,54,9.80
2008,06,25,02,55,9.80
2008,06,25,02,56,9.80
2008,06,25,02,57,9.80
2008,06,25,02,58,9.80
2008,06,25,02,59,9.80
2008,06,25,03,00,9.80
2008,06,25,03,01,9.80
2008,06,25,03,02,9.80
2008,06,25,03,03,9.80
2008,06,25,03,04,9.80
2008,06,25,03,05,9.80
2008,06,25,03,06,9.80
2008,06,25,03,07,9.80
2008,06,25,03,08,9.80
2008,06,25,03,09,9.80
2008,06,25,03,10,9.80
2008,06,25,03,11,9.80
2008,06,25,03,12,9.80
2008,06,25,03,13,9.80
2008,06,25,03,14,9.80
2008,06,25,03,15,9.80
2008,06,25,03,16,9.80
2008,06,25,03,17,9.80
2008,06,25,03,18,9.80
2008,06,25,03,19,9.80
2008,06,25,03,20,9.80
2008,06,25,03,21,9.80
2008,06,25,03,22,9.80
2008,06,25,03,23,9.70
2008,06,25,03,24,9.70
2008,06,25,03,25,9.70
2008,06,25,03,26,9.70
2008,06,25,03,27,9.70
2008,06,25,03,28,9.70
2008,06,25,03,29,9.70
2008,06,25,03,30,9.70
2008,06,25,03,31,9.70
2008,06,25,03,32,9.70
2008,06,25,03,33,9.70
2008,06,25,03,34,9.70
2008,06,25,03,35,9.70
2008,06,25,03,36,9.60
2008,06,25,03,37,9.60
2008,06,25,03,38,9.60
2008,06,25,03,39,9.60
2008,06,25,03,40,9.60
2008,06,25,03,41,9.60
2008,06,25,03,42,9.60
2008,06,25,03,43,9.60
2008,06,25,03,44,9.60
2008,06,25,03,45,9.60
2008,06,25,03,46,9.60
2008,06,25,03,47,9.60
2008,06,25,03,48,9.60
2008,06,25,03,49,9.60
2008,06,25,03,50,9.60
2008,06,25,03,51,9.60
2008,06,25,03,52,9.60
2008,06,25,03,53,9.50
2008,06,25,03,54,9.40
2008,06,25,03,55,9.40
2008,06,25,03,56,9.30
2008,06,25,03,57,9.30
2008,06,25,03,58,9.30
2008,06,25,03,59,9.30
2008,06,25,04,00,9.10
2008,06,25,04,01,9.10
2008,06,25,04,02,9.10
2008,06,25,04,03,9.10
2008,06,25,04,04,9.10
2008,06,25,04,05,9.10
2008,06,25,04,06,9.10
2008,06,25,04,07,9.10
2008,06,25,04,08,9.20
2008,06,25,04,09,9.20
2008,06,25,04,10,9.20
2008,06,25,04,11,9.20
2008,06,25,04,12,9.20
2008,06,25,04,13,9.20
2008,06,25,04,14,9.20
2008,06,25,04,15,9.20
2008,06,25,04,16,9.20
2008,06,25,04,17,9.20
2008,06,25,04,18,9.20
2008,06,25,04,19,9.20
2008,06,25,04,20,9.20
2008,06,25,04,21,9.20
2008,06,25,04,22,9.20
2008,06,25,04,23,9.20
2008,06,25,04,24,9.20
2008,06,25,04,25,9.20
2008,06,25,04,26,9.20
2008,06,25,04,27,9.20
2008,06,25,04,28,9.20
2008,06,25,04,29,9.20
2008,06,25,04,30,9.20
2008,06,25,04,31,9.20
2008,06,25,04,32,9.20
2008,06,25,04,33,9.30
2008,06,25,04,34,9.30
2008,06,25,04,35,9.30
2008,06,25,04,36,9.30
2008,06,25,04,37,9.30
2008,06,25,04,38,9.30
2008,06,25,04,39,9.40
2008,06,25,04,40,9.40
2008,06,25,04,41,9.40
2008,06,25,04,42,9.40
2008,06,25,04,43,9.30
2008,06,25,04,44,9.30
2008,06,25,04,45,9.30
2008,06,25,04,46,9.20
2008,06,25,04,47,9.20
2008,06,25,04,48,9.20
2008,06,25,04,49,9.20
2008,06,25,04,50,9.20
2008,06,25,04,51,9.20
2008,06,25,04,52,9.20
2008,06,25,04,53,9.20
2008,06,25,04,54,9.30
2008,06,25,04,55,9.30
2008,06,25,04,56,9.30
2008,06,25,04,57,9.30
2008,06,25,04,58,9.30
2008,06,25,04,59,9.30
2008,06,25,05,00,9.30
2008,06,25,05,01,9.40
2008,06,25,05,02,9.40
2008,06,25,05,03,9.40
2008,06,25,05,04,9.40
2008,06,25,05,05,9.40
2008,06,25,05,06,9.40
2008,06,25,05,07,9.30
2008,06,25,05,08,9.30
2008,06,25,05,09,9.30
2008,06,25,05,10,9.30
2008,06,25,05,11,9.20
2008,06,25,05,12,9.20
2008,06,25,05,13,9.20
2008,06,25,05,14,9.20
2008,06,25,05,15,9.20
2008,06,25,05,16,9.10
2008,06,25,05,17,9.00
2008,06,25,05,18,9.00
2008,06,25,05,19,8.90
2008,06,25,05,20,8.90
2008,06,25,05,21,8.80
2008,06,25,05,22,8.80
2008,06,25,05,23,8.80
2008,06,25,05,24,8.70
2008,06,25,05,25,8.70
2008,06,25,05,26,8.70
2008,06,25,05,27,8.70
2008,06,25,05,28,8.70
2008,06,25,05,29,8.60
2008,06,25,05,30,8.60
2008,06,25,05,31,8.60
2008,06,25,05,32,8.60
2008,06,25,05,33,8.50
2008,06,25,05,34,8.50
2008,06,25,05,35,8.50
2008,06,25,05,36,8.50
2008,06,25,05,37,8.50
2008,06,25,05,38,8.50
2008,06,25,05,39,8.40
2008,06,25,05,40,8.40
2008,06,25,05,41,8.40
2008,06,25,05,42,8.40
2008,06,25,05,43,8.40
2008,06,25,05,44,8.40
2008,06,25,05,45,8.40
2008,06,25,05,46,8.40
2008,06,25,05,47,8.50
2008,06,25,05,48,8.50
2008,06,25,05,49,8.50
2008,06,25,05,50,8.50
2008,06,25,05,51,8.50
2008,06,25,05,52,8.60
2008,06,25,05,53,8.60
2008,06,25,05,54,8.60
2008,06,25,05,55,8.60
2008,06,25,05,56,8.60
2008,06,25,05,57,8.70
2008,06,25,05,58,8.70
2008,06,25,05,59,8.70
2008,06,25,06,00,8.70
2008,06,25,06,01,8.70
2008,06,25,06,02,8.70
2008,06,25,06,03,8.70
2008,06,25,06,04,8.70
2008,06,25,06,05,8.70
2008,06,25,06,06,8.70
2008,06,25,06,07,8.70
2008,06,25,06,08,8.70
2008,06,25,06,09,8.80
2008,06,25,06,10,8.80
2008,06,25,06,11,8.80
2008,06,25,06,12,8.80
2008,06,25,06,13,8.80
2008,06,25,06,14,8.90
2008,06,25,06,15,8.90
2008,06,25,06,16,8.90
2008,06,25,06,17,8.90
2008,06,25,06,18,9.00
2008,06,25,06,19,9.00
2008,06,25,06,20,9.00
2008,06,25,06,21,9.00
2008,06,25,06,22,9.00
2008,06,25,06,23,9.10
2008,06,25,06,24,9.10
2008,06,25,06,25,9.10
2008,06,25,06,26,9.10
2008,06,25,06,27,9.20
2008,06,25,06,28,9.20
2008,06,25,06,29,9.20
2008,06,25,06,30,9.20
2008,06,25,06,31,9.30
2008,06,25,06,32,9.30
2008,06,25,06,33,9.40
2008,06,25,06,34,9.40
2008,06,25,06,35,9.50
2008,06,25,06,36,9.60
2008,06,25,06,37,9.60
2008,06,25,06,38,9.70
2008,06,25,06,39,9.70
2008,06,25,06,40,9.70
2008,06,25,06,41,9.80
2008,06,25,06,42,9.80
2008,06,25,06,43,9.90
2008,06,25,06,44,9.90
2008,06,25,06,45,9.90
2008,06,25,06,46,9.90
2008,06,25,06,47,10.00
2008,06,25,06,48,10.10
2008,06,25,06,49,10.10
2008,06,25,06,50,10.10
2008,06,25,06,51,10.10
2008,06,25,06,52,10.10
2008,06,25,06,53,10.10
2008,06,25,06,54,10.10
2008,06,25,06,55,10.10
2008,06,25,06,56,10.20
2008,06,25,06,57,10.20
2008,06,25,06,58,10.30
2008,06,25,06,59,10.30
2008,06,25,07,00,10.40
2008,06,25,07,01,10.40
2008,06,25,07,02,10.40
2008,06,25,07,03,10.60
2008,06,25,07,04,10.60
2008,06,25,07,05,10.60
2008,06,25,07,06,10.60
2008,06,25,07,07,10.70
2008,06,25,07,08,10.70
2008,06,25,07,09,10.80
2008,06,25,07,10,10.80
2008,06,25,07,11,10.80
2008,06,25,07,12,10.90
2008,06,25,07,13,10.90
2008,06,25,07,14,10.90
2008,06,25,07,15,10.90
2008,06,25,07,16,10.90
2008,06,25,07,17,10.90
2008,06,25,07,18,10.90
2008,06,25,07,19,11.00
2008,06,25,07,20,11.10
2008,06,25,07,21,11.10
2008,06,25,07,22,11.10
2008,06,25,07,23,11.10
2008,06,25,07,24,11.10
2008,06,25,07,25,11.20
2008,06,25,07,26,11.20
2008,06,25,07,27,11.30
2008,06,25,07,28,11.30
2008,06,25,07,29,11.40
2008,06,25,07,30,11.40
2008,06,25,07,31,11.40
2008,06,25,07,32,11.40
2008,06,25,07,33,11.60
2008,06,25,07,34,11.60
2008,06,25,07,35,11.60
2008,06,25,07,36,11.60
2008,06,25,07,37,11.60
2008,06,25,07,38,11.60
2008,06,25,07,39,11.60
2008,06,25,07,40,11.80
2008,06,25,07,41,12.10
2008,06,25,07,42,12.20
2008,06,25,07,43,12.30
2008,06,25,07,44,12.30
2008,06,25,07,45,12.40
2008,06,25,07,46,12.40
2008,06,25,07,47,12.50
2008,06,25,07,48,12.60
2008,06,25,07,49,12.70
2008,06,25,07,50,12.80
2008,06,25,07,51,12.80
2008,06,25,07,52,12.80
2008,06,25,07,53,12.80
2008,06,25,07,54,12.80
2008,06,25,07,55,12.90
2008,06,25,07,56,13.00
2008,06,25,07,57,13.00
2008,06,25,07,58,13.00
2008,06,25,07,59,13.00
2008,06,25,08,00,13.10
2008,06,25,08,01,13.10
2008,06,25,08,02,13.20
2008,06,25,08,03,13.20
2008,06,25,08,04,13.30
2008,06,25,08,05,13.30
2008,06,25,08,06,13.40
2008,06,25,08,07,13.40
2008,06,25,08,08,13.40
2008,06,25,08,09,13.40
2008,06,25,08,10,13.50
2008,06,25,08,11,13.60
2008,06,25,08,12,13.70
2008,06,25,08,13,13.80
2008,06,25,08,14,13.90
2008,06,25,08,15,14.00
2008,06,25,08,16,14.10
2008,06,25,08,17,14.10
2008,06,25,08,18,14.20
2008,06,25,08,19,14.20
2008,06,25,08,20,14.30
2008,06,25,08,21,14.30
2008,06,25,08,22,14.20
2008,06,25,08,23,14.20
2008,06,25,08,24,14.30
2008,06,25,08,25,14.40
2008,06,25,08,26,14.40
2008,06,25,08,27,14.50
2008,06,25,08,28,14.50
2008,06,25,08,29,14.60
2008,06,25,08,30,14.60
2008,06,25,08,31,14.70
2008,06,25,08,32,14.70
2008,06,25,08,33,14.70
2008,06,25,08,34,14.70
2008,06,25,08,35,14.80
2008,06,25,08,36,14.80
2008,06,25,08,37,14.90
2008,06,25,08,38,15.00
2008,06,25,08,39,15.10
2008,06,25,08,40,15.10
2008,06,25,08,41,15.20
2008,06,25,08,42,15.30
2008,06,25,08,43,15.30
2008,06,25,08,44,15.40
2008,06,25,08,45,15.40
2008,06,25,08,46,15.50
2008,06,25,08,47,15.50
2008,06,25,08,48,15.50
2008,06,25,08,49,15.60
2008,06,25,08,50,15.60
2008,06,25,08,51,15.70
2008,06,25,08,52,15.70
2008,06,25,08,53,15.80
2008,06,25,08,54,15.80
2008,06,25,08,55,15.80
2008,06,25,08,56,15.90
2008,06,25,08,57,15.90
2008,06,25,08,58,16.00
2008,06,25,08,59,16.10
2008,06,25,09,00,16.10
2008,06,25,09,01,16.10
2008,06,25,09,02,16.10
2008,06,25,09,03,16.20
2008,06,25,09,04,16.20
2008,06,25,09,05,16.30
2008,06,25,09,06,16.30
2008,06,25,09,07,16.40
2008,06,25,09,08,16.40
2008,06,25,09,09,16.40
2008,06,25,09,10,16.40
2008,06,25,09,11,16.50
2008,06,25,09,12,16.60
2008,06,25,09,13,16.70
2008,06,25,09,14,16.80
2008,06,25,09,15,16.80
2008,06,25,09,16,16.80
2008,06,25,09,17,16.90
2008,06,25,09,18,17.00
2008,06,25,09,19,17.10
2008,06,25,09,20,17.00
2008,06,25,09,21,17.00
2008,06,25,09,22,16.90
2008,06,25,09,23,16.90
2008,06,25,09,24,16.90
2008,06,25,09,25,16.80
2008,06,25,09,26,16.80
2008,06,25,09,27,16.90
2008,06,25,09,28,16.90
2008,06,25,09,29,16.90
2008,06,25,09,30,17.00
2008,06,25,09,31,17.00
2008,06,25,09,32,17.10
2008,06,25,09,33,17.20
2008,06,25,09,34,17.30
2008,06,25,09,35,17.40
2008,06,25,09,36,17.50
2008,06,25,09,37,17.50
2008,06,25,09,38,17.50
2008,06,25,09,39,17.60
2008,06,25,09,40,17.60
2008,06,25,09,41,17.60
2008,06,25,09,42,17.60
2008,06,25,09,43,17.60
2008,06,25,09,44,17.60
2008,06,25,09,45,17.50
2008,06,25,09,46,17.50
2008,06,25,09,47,17.50
2008,06,25,09,48,17.50
2008,06,25,09,49,17.50
2008,06,25,09,50,17.60
2008,06,25,09,51,17.60
2008,06,25,09,52,17.50
2008,06,25,09,53,17.60
2008,06,25,09,54,17.60
2008,06,25,09,55,17.70
2008,06,25,09,56,17.80
2008,06,25,09,57,17.90
2008,06,25,09,58,18.00
2008,06,25,09,59,18.10
2008,06,25,10,00,18.20
2008,06,25,10,01,18.20
2008,06,25,10,02,18.20
2008,06,25,10,03,18.20
2008,06,25,10,04,18.20
2008,06,25,10,05,18.20
2008,06,25,10,06,18.20
2008,06,25,10,07,18.20
2008,06,25,10,08,18.20
2008,06,25,10,09,18.20
2008,06,25,10,10,18.20
2008,06,25,10,11,18.20
2008,06,25,10,12,18.10
2008,06,25,10,13,18.10
2008,06,25,10,14,18.10
2008,06,25,10,15,18.10
2008,06,25,10,16,18.00
2008,06,25,10,17,17.90
2008,06,25,10,18,17.90
2008,06,25,10,19,17.90
2008,06,25,10,20,17.90
2008,06,25,10,21,17.90
2008,06,25,10,22,17.90
2008,06,25,10,23,17.80
2008,06,25,10,24,17.80
2008,06,25,10,25,17.70
2008,06,25,10,26,17.70
2008,06,25,10,27,17.60
2008,06,25,10,28,17.50
2008,06,25,10,29,17.50
2008,06,25,10,30,17.30
2008,06,25,10,31,17.30
2008,06,25,10,32,17.30
2008,06,25,10,33,17.30
2008,06,25,10,34,17.40
2008,06,25,10,35,17.40
2008,06,25,10,36,17.50
2008,06,25,10,37,17.60
2008,06,25,10,38,17.70
2008,06,25,10,39,17.70
2008,06,25,10,40,17.80
2008,06,25,10,41,17.70
2008,06,25,10,42,17.80
2008,06,25,10,43,17.70
2008,06,25,10,44,17.70
2008,06,25,10,45,17.60
2008,06,25,10,46,17.40
2008,06,25,10,47,17.30
2008,06,25,10,48,17.30
2008,06,25,10,49,17.30
2008,06,25,10,50,17.20
2008,06,25,10,51,17.20
2008,06,25,10,52,17.30
2008,06,25,10,53,17.30
2008,06,25,10,54,17.50
2008,06,25,10,55,17.60
2008,06,25,10,56,17.70
2008,06,25,10,57,17.80
2008,06,25,10,58,17.80
2008,06,25,10,59,17.80
2008,06,25,11,00,17.80
2008,06,25,11,01,17.70
2008,06,25,11,02,17.70
2008,06,25,11,03,17.70
2008,06,25,11,04,17.60
2008,06,25,11,05,17.50
2008,06,25,11,06,17.40
2008,06,25,11,07,17.30
2008,06,25,11,08,17.30
2008,06,25,11,09,17.30
2008,06,25,11,10,17.40
2008,06,25,11,11,17.50
2008,06,25,11,12,17.50
2008,06,25,11,13,17.50
2008,06,25,11,14,17.50
2008,06,25,11,15,17.60
2008,06,25,11,16,17.70
2008,06,25,11,17,17.70
2008,06,25,11,18,17.70
2008,06,25,11,19,17.70
2008,06,25,11,20,17.80
2008,06,25,11,21,17.80
2008,06,25,11,22,17.80
2008,06,25,11,23,17.80
2008,06,25,11,24,17.70
2008,06,25,11,25,17.70
2008,06,25,11,26,17.70
2008,06,25,11,27,17.70
2008,06,25,11,28,17.70
2008,06,25,11,29,17.80
2008,06,25,11,30,17.90
2008,06,25,11,31,17.90
2008,06,25,11,32,17.90
2008,06,25,11,33,17.80
2008,06,25,11,34,17.70
2008,06,25,11,35,17.70
2008,06,25,11,36,17.60
2008,06,25,11,37,17.60
2008,06,25,11,38,17.50
2008,06,25,11,39,17.50
2008,06,25,11,40,17.50
2008,06,25,11,41,17.50
2008,06,25,11,42,17.50
2008,06,25,11,43,17.50
2008,06,25,11,44,17.50
2008,06,25,11,45,17.50
2008,06,25,11,46,17.50
2008,06,25,11,47,17.40
2008,06,25,11,48,17.30
2008,06,25,11,49,17.40
2008,06,25,11,50,17.40
2008,06,25,11,51,17.40
2008,06,25,11,52,17.50
2008,06,25,11,53,17.60
2008,06,25,11,54,17.60
2008,06,25,11,55,17.60
2008,06,25,11,56,17.50
2008,06,25,11,57,17.60
2008,06,25,11,58,17.60
2008,06,25,11,59,17.70
2008,06,25,12,00,17.80
2008,06,25,12,01,17.80
2008,06,25,12,02,17.70
2008,06,25,12,03,17.80
2008,06,25,12,04,17.90
2008,06,25,12,05,17.90
2008,06,25,12,06,18.00
2008,06,25,12,07,18.10
2008,06,25,12,08,18.20
2008,06,25,12,09,18.20
2008,06,25,12,10,18.30
2008,06,25,12,11,18.30
2008,06,25,12,12,18.40
2008,06,25,12,13,18.50
2008,06,25,12,14,18.60
2008,06,25,12,15,18.70
2008,06,25,12,16,18.70
2008,06,25,12,17,18.60
2008,06,25,12,18,18.50
2008,06,25,12,19,18.40
2008,06,25,12,20,18.30
2008,06,25,12,21,18.20
2008,06,25,12,22,18.10
2008,06,25,12,23,17.90
2008,06,25,12,24,17.80
2008,06,25,12,25,17.80
2008,06,25,12,26,17.90
2008,06,25,12,27,17.80
2008,06,25,12,28,17.80
2008,06,25,12,29,17.90
2008,06,25,12,30,17.90
2008,06,25,12,31,17.90
2008,06,25,12,32,17.90
2008,06,25,12,33,17.90
2008,06,25,12,34,17.80
2008,06,25,12,35,17.70
2008,06,25,12,36,17.70
2008,06,25,12,37,17.70
2008,06,25,12,38,17.60
2008,06,25,12,39,17.70
2008,06,25,12,40,17.70
2008,06,25,12,41,17.70
2008,06,25,12,42,17.80
2008,06,25,12,43,17.80
2008,06,25,12,44,17.80
2008,06,25,12,45,17.80
2008,06,25,12,46,17.80
2008,06,25,12,47,17.70
2008,06,25,12,48,17.80
2008,06,25,12,49,17.90
2008,06,25,12,50,17.90
2008,06,25,12,51,18.00
2008,06,25,12,52,18.10
2008,06,25,12,53,18.10
2008,06,25,12,54,18.20
2008,06,25,12,55,18.40
2008,06,25,12,56,18.50
2008,06,25,12,57,18.50
2008,06,25,12,58,18.50
2008,06,25,12,59,18.40
2008,06,25,13,00,18.50
2008,06,25,13,01,18.50
2008,06,25,13,02,18.40
2008,06,25,13,03,18.40
2008,06,25,13,04,18.50
2008,06,25,13,05,18.50
2008,06,25,13,06,18.50
2008,06,25,13,07,18.50
2008,06,25,13,08,18.50
2008,06,25,13,09,18.50
2008,06,25,13,10,18.50
2008,06,25,13,11,18.60
2008,06,25,13,12,18.70
2008,06,25,13,13,18.70
2008,06,25,13,14,18.60
2008,06,25,13,15,18.50
2008,06,25,13,16,18.50
2008,06,25,13,17,18.50
2008,06,25,13,18,18.50
2008,06,25,13,19,18.40
2008,06,25,13,20,18.50
2008,06,25,13,21,18.50
2008,06,25,13,22,18.50
2008,06,25,13,23,18.50
2008,06,25,13,24,18.60
2008,06,25,13,25,18.60
2008,06,25,13,26,18.60
2008,06,25,13,27,18.30
2008,06,25,13,28,18.30
2008,06,25,13,29,18.40
2008,06,25,13,30,18.40
2008,06,25,13,31,18.40
2008,06,25,13,32,18.50
2008,06,25,13,33,18.50
2008,06,25,13,34,18.60
2008,06,25,13,35,18.70
2008,06,25,13,36,18.70
2008,06,25,13,37,18.70
2008,06,25,13,38,18.90
2008,06,25,13,39,19.10
2008,06,25,13,40,19.20
2008,06,25,13,41,19.20
2008,06,25,13,42,19.30
2008,06,25,13,43,19.40
2008,06,25,13,44,19.50
2008,06,25,13,45,19.60
2008,06,25,13,46,19.70
2008,06,25,13,47,19.90
2008,06,25,13,48,19.90
2008,06,25,13,49,19.90
2008,06,25,13,50,19.80
2008,06,25,13,51,19.70
2008,06,25,13,52,19.60
2008,06,25,13,53,19.50
2008,06,25,13,54,19.50
2008,06,25,13,55,19.50
2008,06,25,13,56,19.60
2008,06,25,13,57,19.60
2008,06,25,13,58,19.50
2008,06,25,13,59,19.40
2008,06,25,14,00,19.30
2008,06,25,14,01,19.30
2008,06,25,14,02,19.20
2008,06,25,14,03,19.10
2008,06,25,14,04,19.10
2008,06,25,14,05,19.10
2008,06,25,14,06,19.10
2008,06,25,14,07,19.10
2008,06,25,14,08,19.20
2008,06,25,14,09,19.40
2008,06,25,14,10,19.60
2008,06,25,14,11,19.60
2008,06,25,14,12,19.60
2008,06,25,14,13,19.60
2008,06,25,14,14,19.50
2008,06,25,14,15,19.50
2008,06,25,14,16,19.50
2008,06,25,14,17,19.50
2008,06,25,14,18,19.30
2008,06,25,14,19,19.20
2008,06,25,14,20,19.10
2008,06,25,14,21,19.20
2008,06,25,14,22,19.20
2008,06,25,14,23,19.20
2008,06,25,14,24,19.30
2008,06,25,14,25,19.40
2008,06,25,14,26,19.50
2008,06,25,14,27,19.40
2008,06,25,14,28,19.50
2008,06,25,14,29,19.60
2008,06,25,14,30,19.70
2008,06,25,14,31,19.70
2008,06,25,14,32,19.40
2008,06,25,14,33,19.10
2008,06,25,14,34,19.10
2008,06,25,14,35,19.10
2008,06,25,14,36,19.00
2008,06,25,14,37,18.90
2008,06,25,14,38,18.80
2008,06,25,14,39,18.80
2008,06,25,14,40,18.90
2008,06,25,14,41,18.90
2008,06,25,14,42,18.90
2008,06,25,14,43,18.90
2008,06,25,14,44,18.90
2008,06,25,14,45,19.00
2008,06,25,14,46,19.10
2008,06,25,14,47,19.10
2008,06,25,14,48,19.40
2008,06,25,14,49,19.30
2008,06,25,14,50,19.30
2008,06,25,14,51,19.20
2008,06,25,14,52,19.10
2008,06,25,14,53,19.10
2008,06,25,14,54,19.10
2008,06,25,14,55,19.10
2008,06,25,14,56,19.10
2008,06,25,14,57,19.00
2008,06,25,14,58,18.90
2008,06,25,14,59,18.90
2008,06,25,15,00,18.90
2008,06,25,15,01,18.90
2008,06,25,15,02,18.90
2008,06,25,15,03,18.90
2008,06,25,15,04,19.00
2008,06,25,15,05,19.10
2008,06,25,15,06,19.20
2008,06,25,15,07,19.30
2008,06,25,15,08,19.20
2008,06,25,15,09,19.10
2008,06,25,15,10,19.10
2008,06,25,15,11,19.10
2008,06,25,15,12,19.10
2008,06,25,15,13,19.10
2008,06,25,15,14,19.10
2008,06,25,15,15,19.20
2008,06,25,15,16,19.20
2008,06,25,15,17,19.10
2008,06,25,15,18,19.10
2008,06,25,15,19,19.10
2008,06,25,15,20,19.10
2008,06,25,15,21,19.00
2008,06,25,15,22,18.90
2008,06,25,15,23,18.80
2008,06,25,15,24,18.80
2008,06,25,15,25,19.00
2008,06,25,15,26,19.10
2008,06,25,15,27,19.20
2008,06,25,15,28,19.20
2008,06,25,15,29,19.10
2008,06,25,15,30,19.00
2008,06,25,15,31,19.00
2008,06,25,15,32,19.10
2008,06,25,15,33,19.10
2008,06,25,15,34,19.20
2008,06,25,15,35,19.20
2008,06,25,15,36,19.10
2008,06,25,15,37,19.10
2008,06,25,15,38,19.20
2008,06,25,15,39,19.10
2008,06,25,15,40,19.00
2008,06,25,15,41,18.90
2008,06,25,15,42,18.80
2008,06,25,15,43,18.70
2008,06,25,15,44,18.70
2008,06,25,15,45,18.70
2008,06,25,15,46,18.70
2008,06,25,15,47,18.80
2008,06,25,15,48,18.80
2008,06,25,15,49,18.90
2008,06,25,15,50,18.90
2008,06,25,15,51,19.00
2008,06,25,15,52,19.10
2008,06,25,15,53,19.10
2008,06,25,15,54,19.10
2008,06,25,15,55,19.00
2008,06,25,15,56,18.90
2008,06,25,15,57,18.90
2008,06,25,15,58,18.80
2008,06,25,15,59,18.80
2008,06,25,16,00,18.80
2008,06,25,16,01,18.90
2008,06,25,16,02,18.90
2008,06,25,16,03,18.90
2008,06,25,16,04,18.90
2008,06,25,16,05,19.10
2008,06,25,16,06,19.10
2008,06,25,16,07,19.10
2008,06,25,16,08,19.00
2008,06,25,16,09,18.90
2008,06,25,16,10,18.90
2008,06,25,16,11,19.00
2008,06,25,16,12,19.00
2008,06,25,16,13,18.90
2008,06,25,16,14,18.90
2008,06,25,16,15,18.80
2008,06,25,16,16,18.70
2008,06,25,16,17,18.70
2008,06,25,16,18,18.70
2008,06,25,16,19,18.80
2008,06,25,16,20,18.90
2008,06,25,16,21,19.10
2008,06,25,16,22,19.30
2008,06,25,16,23,19.30
2008,06,25,16,24,19.40
2008,06,25,16,25,19.40
2008,06,25,16,26,19.30
2008,06,25,16,27,19.40
2008,06,25,16,28,19.50
2008,06,25,16,29,19.50
2008,06,25,16,30,19.50
2008,06,25,16,31,19.50
2008,06,25,16,32,19.70
2008,06,25,16,33,19.80
2008,06,25,16,34,19.80
2008,06,25,16,35,19.90
2008,06,25,16,36,19.90
2008,06,25,16,37,19.70
2008,06,25,16,38,19.70
2008,06,25,16,39,19.70
2008,06,25,16,40,19.60
2008,06,25,16,41,19.60
2008,06,25,16,42,19.60
2008,06,25,16,43,19.70
2008,06,25,16,44,19.60
2008,06,25,16,45,19.50
2008,06,25,16,46,19.50
2008,06,25,16,47,19.60
2008,06,25,16,48,19.50
2008,06,25,16,49,19.40
2008,06,25,16,50,19.50
2008,06,25,16,51,19.50
2008,06,25,16,52,19.50
2008,06,25,16,53,19.50
2008,06,25,16,54,19.40
2008,06,25,16,55,19.10
2008,06,25,16,56,18.90
2008,06,25,16,57,18.90
2008,06,25,16,58,19.00
2008,06,25,16,59,19.10
2008,06,25,17,00,19.10
2008,06,25,17,01,19.10
2008,06,25,17,02,19.10
2008,06,25,17,03,19.10
2008,06,25,17,04,19.10
2008,06,25,17,05,19.10
2008,06,25,17,06,19.00
2008,06,25,17,07,18.90
2008,06,25,17,08,19.00
2008,06,25,17,09,19.10
2008,06,25,17,10,19.20
2008,06,25,17,11,19.30
2008,06,25,17,12,19.30
2008,06,25,17,13,19.30
2008,06,25,17,14,19.30
2008,06,25,17,15,19.30
2008,06,25,17,16,19.40
2008,06,25,17,17,19.40
2008,06,25,17,18,19.40
2008,06,25,17,19,19.30
2008,06,25,17,20,19.20
2008,06,25,17,21,19.10
2008,06,25,17,22,19.10
2008,06,25,17,23,19.10
2008,06,25,17,24,19.10
2008,06,25,17,25,19.10
2008,06,25,17,26,19.10
2008,06,25,17,27,19.10
2008,06,25,17,28,19.10
2008,06,25,17,29,19.10
2008,06,25,17,30,19.10